Location: ?
(35.4064°N, 139.3593°E)
Time: 18:43:46
(UTC+00:00)

ACS3 Solar Sail - Pass Details

Date: 26 June 2024
Orbit: 992 x 1023 km, 97.4° (Epoch: 14 July)

Event Time Altitude Azimuth Distance (km) Brightness Sun altitude
Exits shadow 11:17:26 17° 117° (ESE) 2,290 6.1 -13.4°
Maximum altitude 11:21:09 30° 69° (ENE) 1,702 5.8 -13.9°
Drops below altitude 10° 11:26:24 10° 11° (N) 2,763 7.6 -14.7°
Sets 11:29:10 0° 1° (N) 3,714 8.5 -15.1°
